TimeCST,TemperatureF,Dew PointF,Humidity,Sea Level PressureIn,VisibilityMPH,Wind Direction,Wind SpeedMPH,Gust SpeedMPH,PrecipitationIn,Events,Conditions,WindDirDegrees,DateUTC
12:15 AM,35.6,26.6,70,30.01,10.0,WNW,3.5,-,N/A,,Overcast,300,2012-12-07 06:15:00
12:35 AM,35.6,26.6,70,30.01,10.0,NW,4.6,-,N/A,,Overcast,310,2012-12-07 06:35:00
12:55 AM,35.6,24.8,65,30.00,10.0,NW,3.5,-,N/A,,Overcast,310,2012-12-07 06:55:00
1:15 AM,35.6,24.8,65,30.00,10.0,NNW,3.5,-,N/A,,Overcast,330,2012-12-07 07:15:00
1:35 AM,35.6,24.8,65,29.99,10.0,NNW,3.5,-,N/A,,Overcast,340,2012-12-07 07:35:00
1:55 AM,35.6,26.6,70,29.99,10.0,NNW,3.5,-,N/A,,Overcast,340,2012-12-07 07:55:00
2:15 AM,33.8,26.6,75,30.00,10.0,Calm,Calm,-,N/A,,Overcast,0,2012-12-07 08:15:00
2:35 AM,33.8,26.6,75,29.99,10.0,ENE,4.6,-,N/A,,Overcast,60,2012-12-07 08:35:00
2:55 AM,33.8,24.8,70,29.99,10.0,NE,5.8,-,N/A,,Overcast,40,2012-12-07 08:55:00
3:15 AM,33.8,24.8,70,29.99,10.0,ENE,3.5,-,N/A,,Mostly Cloudy,60,2012-12-07 09:15:00
3:35 AM,33.8,24.8,70,29.99,10.0,Calm,Calm,-,N/A,,Mostly Cloudy,0,2012-12-07 09:35:00
3:55 AM,33.8,24.8,70,29.98,10.0,East,4.6,-,N/A,,Overcast,80,2012-12-07 09:55:00
4:15 AM,33.8,26.6,75,29.96,10.0,ENE,6.9,-,N/A,,Overcast,70,2012-12-07 10:15:00
4:35 AM,33.8,24.8,70,29.96,10.0,East,5.8,-,N/A,,Overcast,90,2012-12-07 10:35:00
4:55 AM,33.8,24.8,70,29.94,10.0,East,11.5,-,N/A,,Mostly Cloudy,80,2012-12-07 10:55:00
5:15 AM,33.8,24.8,70,29.97,10.0,Calm,Calm,-,N/A,,Scattered Clouds,0,2012-12-07 11:15:00
5:35 AM,33.8,24.8,70,29.98,10.0,NNE,3.5,-,N/A,,Mostly Cloudy,30,2012-12-07 11:35:00
6:15 AM,33.8,24.8,70,29.96,10.0,ENE,5.8,-,N/A,,Partly Cloudy,70,2012-12-07 12:15:00
6:35 AM,33.8,24.8,70,29.96,10.0,ENE,5.8,-,N/A,,Clear,60,2012-12-07 12:35:00
6:55 AM,33.8,24.8,70,29.95,10.0,East,6.9,-,N/A,,Partly Cloudy,80,2012-12-07 12:55:00
7:15 AM,32.0,24.8,75,29.95,10.0,East,9.2,-,N/A,,Scattered Clouds,80,2012-12-07 13:15:00
7:35 AM,32.0,23.0,69,29.96,10.0,East,5.8,-,N/A,,Partly Cloudy,80,2012-12-07 13:35:00
7:55 AM,32.0,21.2,64,29.94,10.0,East,8.1,-,N/A,,Scattered Clouds,80,2012-12-07 13:55:00
8:15 AM,30.2,23.0,75,29.93,10.0,East,10.4,-,N/A,,Scattered Clouds,80,2012-12-07 14:15:00
8:35 AM,30.2,21.2,69,29.97,10.0,ENE,6.9,-,N/A,,Mostly Cloudy,60,2012-12-07 14:35:00
8:55 AM,30.2,21.2,69,29.98,10.0,ENE,3.5,-,N/A,,Overcast,60,2012-12-07 14:55:00
9:15 AM,32.0,23.0,69,29.99,10.0,ESE,4.6,-,N/A,,Scattered Clouds,110,2012-12-07 15:15:00
9:35 AM,32.0,23.0,69,30.00,10.0,Calm,Calm,-,N/A,,Clear,0,2012-12-07 15:35:00
9:55 AM,32.0,21.2,64,29.99,10.0,East,6.9,-,N/A,,Partly Cloudy,80,2012-12-07 15:55:00
10:15 AM,32.0,23.0,69,29.98,10.0,East,8.1,-,N/A,,Partly Cloudy,80,2012-12-07 16:15:00
10:35 AM,32.0,23.0,69,29.98,10.0,East,8.1,-,N/A,,Clear,80,2012-12-07 16:35:00
10:55 AM,32.0,23.0,69,29.98,10.0,East,6.9,-,N/A,,Clear,80,2012-12-07 16:55:00
11:15 AM,30.2,24.8,80,29.98,1.2,East,6.9,-,N/A,,Overcast,90,2012-12-07 17:15:00
11:35 AM,30.2,24.8,80,29.98,3.0,East,5.8,-,N/A,,Mostly Cloudy,80,2012-12-07 17:35:00
11:55 AM,30.2,26.6,86,29.96,3.0,East,8.1,-,N/A,,Mostly Cloudy,90,2012-12-07 17:55:00
12:15 PM,30.2,26.6,86,29.95,2.0,East,10.4,-,N/A,,Overcast,80,2012-12-07 18:15:00
12:35 PM,30.2,26.6,86,29.93,4.0,East,11.5,-,N/A,,Scattered Clouds,80,2012-12-07 18:35:00
12:55 PM,30.2,26.6,86,29.94,6.0,East,9.2,-,N/A,,Scattered Clouds,90,2012-12-07 18:55:00
1:15 PM,30.2,26.6,86,29.93,2.5,East,9.2,-,N/A,,Overcast,90,2012-12-07 19:15:00
1:35 PM,30.2,28.4,93,29.93,0.8,East,8.1,-,N/A,,Overcast,80,2012-12-07 19:35:00
1:55 PM,30.2,28.4,93,29.92,1.0,East,10.4,-,N/A,,Overcast,80,2012-12-07 19:55:00
2:15 PM,30.2,28.4,93,29.91,1.5,East,9.2,-,N/A,,Overcast,90,2012-12-07 20:15:00
2:35 PM,30.2,28.4,93,29.91,5.0,ENE,10.4,-,N/A,,Overcast,70,2012-12-07 20:35:00
2:55 PM,30.2,28.4,93,29.91,6.0,ENE,10.4,-,N/A,,Overcast,70,2012-12-07 20:55:00
3:15 PM,30.2,28.4,93,29.92,8.0,ENE,9.2,-,N/A,,Overcast,70,2012-12-07 21:15:00
3:35 PM,30.2,28.4,93,29.92,8.0,ENE,6.9,-,N/A,,Overcast,60,2012-12-07 21:35:00
3:55 PM,30.2,28.4,93,29.93,6.0,ENE,5.8,-,N/A,,Overcast,60,2012-12-07 21:55:00
4:15 PM,30.2,28.4,93,29.94,7.0,NE,5.8,-,N/A,,Overcast,50,2012-12-07 22:15:00
4:35 PM,30.2,28.4,93,29.94,5.0,ENE,5.8,-,N/A,,Overcast,60,2012-12-07 22:35:00
4:55 PM,30.2,28.4,93,29.94,5.0,East,5.8,-,N/A,,Overcast,80,2012-12-07 22:55:00
5:15 PM,30.2,28.4,93,29.94,5.0,ENE,8.1,-,N/A,,Overcast,70,2012-12-07 23:15:00
5:35 PM,30.2,28.4,93,29.94,6.0,NE,6.9,-,N/A,,Overcast,50,2012-12-07 23:35:00
5:55 PM,30.2,28.4,93,29.95,7.0,NE,6.9,-,N/A,,Overcast,50,2012-12-07 23:55:00
6:15 PM,30.2,28.4,93,29.96,6.0,NNE,5.8,-,N/A,,Overcast,30,2012-12-08 00:15:00
6:35 PM,30.2,28.4,93,29.97,4.0,NE,5.8,-,N/A,,Overcast,40,2012-12-08 00:35:00
6:55 PM,30.2,28.4,93,29.97,3.0,NE,6.9,-,N/A,,Overcast,40,2012-12-08 00:55:00
7:15 PM,30.2,28.4,93,29.98,3.0,NNE,5.8,-,N/A,,Overcast,20,2012-12-08 01:15:00
7:35 PM,30.2,28.4,93,29.98,3.0,NNE,6.9,-,N/A,,Overcast,20,2012-12-08 01:35:00
7:55 PM,30.2,28.4,93,29.98,5.0,North,3.5,-,N/A,,Overcast,10,2012-12-08 01:55:00
8:15 PM,30.2,28.4,93,29.99,6.0,NE,5.8,-,N/A,,Overcast,40,2012-12-08 02:15:00
8:35 PM,30.2,28.4,93,29.99,7.0,NNE,5.8,-,N/A,,Overcast,20,2012-12-08 02:35:00
8:55 PM,30.2,28.4,93,29.99,9.0,NNE,6.9,-,N/A,,Overcast,30,2012-12-08 02:55:00
9:15 PM,30.2,28.4,93,30.00,9.0,NNE,4.6,-,N/A,,Overcast,20,2012-12-08 03:15:00
9:35 PM,30.2,28.4,93,30.00,9.0,North,6.9,-,N/A,,Overcast,10,2012-12-08 03:35:00
9:55 PM,30.2,26.6,86,30.00,10.0,NNE,6.9,-,N/A,,Overcast,30,2012-12-08 03:55:00
10:15 PM,30.2,26.6,86,30.00,10.0,NNE,6.9,-,N/A,,Overcast,30,2012-12-08 04:15:00
10:35 PM,28.4,26.6,93,30.00,9.0,NE,5.8,-,N/A,,Overcast,40,2012-12-08 04:35:00
10:55 PM,28.4,26.6,93,30.01,9.0,NE,4.6,-,N/A,,Overcast,40,2012-12-08 04:55:00
11:15 PM,28.4,26.6,93,30.01,8.0,NE,4.6,-,N/A,,Overcast,40,2012-12-08 05:15:00
11:35 PM,28.4,26.6,93,30.01,8.0,NE,4.6,-,N/A,,Overcast,50,2012-12-08 05:35:00
11:55 PM,28.4,26.6,93,30.01,8.0,NE,3.5,-,N/A,,Overcast,50,2012-12-08 05:55:00